Date String (YYYY-MM-DD hh:mm:ss) UTC,Instrument flags,Ambient pressure (hPa),Sample flow (lpm),Bypass flow (lpm),Sample temperature (°C),Ambient temperature (°C),ASC tube jacket temperature (°C),LED temperature (°C),Box temperature (°C),Sample RH (%),Span deviation,Mass concentration (μg/m³),Mass concentration (μg/m³),Mass concentration (μg/m³)
DateTimeUTC,F1_M11,P_M11,Q1_M11,Q2_M11,T1_M11,T2_M11,T3_M11,T4_M11,T5_M11,U1_M11,ZSPAN_M11,X0_M11,X2_M11,X1_M11
2021-09-13 06:00:00,,0829.1,5.01,0.00,29.6,28.8,00.0,38.7,31.3,23.8,0000.0,0009.41,0004.82,0003.96
2021-09-13 06:01:00,,0829.1,5.00,0.00,29.6,28.8,00.0,38.7,31.3,23.1,0000.0,0009.37,0004.79,0003.94
2021-09-13 06:02:00,,0829.0,5.00,0.00,29.6,28.8,00.0,38.7,31.3,22.9,0000.0,0009.22,0004.72,0003.91
2021-09-13 06:03:00,,0829.2,4.99,0.00,29.6,28.8,00.0,38.7,31.3,22.8,0000.0,0009.36,0004.71,0003.89
2021-09-13 06:04:00,,0829.0,5.01,0.00,29.6,28.8,00.0,38.7,31.3,22.7,0000.0,0009.32,0004.72,0003.87
2021-09-13 06:05:00,,0829.0,5.00,0.00,29.6,28.8,00.0,38.7,31.3,22.8,0000.0,0008.77,0004.63,0003.82
2021-09-13 06:06:00,,0829.0,5.00,0.00,29.6,28.8,00.0,38.7,31.3,22.7,0000.0,0008.88,0004.64,0003.80
2021-09-13 06:07:00,,0828.6,4.99,0.00,29.6,28.8,00.0,38.7,31.3,22.6,0000.0,0008.87,0004.63,0003.78
2021-09-13 06:08:00,,0828.8,4.99,0.00,29.6,28.8,00.0,38.8,31.3,22.6,0000.0,0009.12,0004.55,0003.76
2021-09-13 06:09:00,,0829.0,5.01,0.00,29.6,28.8,00.0,38.8,31.3,22.6,0000.0,0009.79,0004.53,0003.74
2021-09-13 06:10:00,,0829.0,5.01,0.00,29.6,28.8,00.0,38.8,31.3,22.7,0000.0,0010.27,0004.56,0003.73
2021-09-13 06:11:00,,0829.1,5.00,0.00,29.6,28.8,00.0,38.8,31.3,22.7,0000.0,0010.09,0004.50,0003.70
2021-09-13 06:12:00,,0829.0,4.98,0.00,29.6,28.9,00.0,38.8,31.3,22.6,0000.0,0010.28,0004.44,0003.68
2021-09-13 06:13:00,,0829.0,5.01,0.00,29.6,28.9,00.0,38.8,31.3,22.8,0000.0,0010.28,0004.44,0003.67
2021-09-13 06:14:00,,0828.9,4.99,0.00,29.6,28.9,00.0,38.8,31.3,22.9,0000.0,0010.20,0004.44,0003.67
2021-09-13 06:15:00,,0829.1,5.01,0.00,29.6,28.9,00.0,38.8,31.3,22.7,0000.0,0009.78,0004.37,0003.67
2021-09-13 06:16:00,,0829.1,5.00,0.00,29.6,28.9,00.0,38.8,31.3,22.7,0000.0,0009.80,0004.36,0003.67
2021-09-13 06:17:00,,0828.9,5.00,0.00,29.6,28.9,00.0,38.8,31.3,22.7,0000.0,0009.74,0004.34,0003.66
2021-09-13 06:18:00,,0828.7,4.99,0.00,29.6,28.9,00.0,38.8,31.3,22.7,0000.0,0009.74,0004.33,0003.65
2021-09-13 06:19:00,,0828.7,5.00,0.00,29.6,28.9,00.0,38.8,31.3,22.7,0000.0,0009.51,0004.36,0003.64
2021-09-13 06:20:00,,0828.6,5.00,0.00,29.7,28.9,00.0,38.8,31.3,22.8,0000.0,0008.74,0004.35,0003.62
2021-09-13 06:21:00,,0828.4,4.99,0.00,29.7,28.9,00.0,38.8,31.3,22.8,0000.0,0008.12,0004.29,0003.62
2021-09-13 06:22:00,,0828.5,5.00,0.00,29.7,28.9,00.0,38.8,31.4,22.7,0000.0,0008.04,0004.28,0003.62
2021-09-13 06:23:00,,0828.5,5.00,0.00,29.7,28.9,00.0,38.8,31.4,22.7,0000.0,0008.20,0004.30,0003.62
2021-09-13 06:24:00,,0828.5,5.00,0.00,29.7,28.9,00.0,38.8,31.4,22.7,0000.0,0008.12,0004.28,0003.62
2021-09-13 06:25:00,,0828.5,4.99,0.00,29.7,28.9,00.0,38.8,31.4,22.5,0000.0,0008.14,0004.28,0003.62
2021-09-13 06:26:00,,0828.4,4.99,0.00,29.7,28.9,00.0,38.8,31.4,22.3,0000.0,0008.26,0004.32,0003.62
2021-09-13 06:27:00,,0828.4,5.01,0.00,29.7,28.9,00.0,38.8,31.3,22.2,0000.0,0008.37,0004.35,0003.62
2021-09-13 06:28:00,,0828.4,5.00,0.00,29.7,28.9,00.0,38.8,31.4,22.2,0000.0,0008.34,0004.36,0003.63
2021-09-13 06:29:00,,0828.3,4.99,0.00,29.7,28.9,00.0,38.8,31.4,22.3,0000.0,0008.35,0004.39,0003.63
2021-09-13 06:30:00,,0828.3,5.01,0.00,29.7,28.9,00.0,38.9,31.4,22.4,0000.0,0008.34,0004.36,0003.63
2021-09-13 06:31:00,,0828.3,4.99,0.00,29.7,29.0,00.0,38.9,31.4,22.4,0000.0,0008.27,0004.34,0003.63
2021-09-13 06:32:00,,0828.3,5.00,0.00,29.7,29.0,00.0,38.9,31.4,22.8,0000.0,0008.84,0004.36,0003.63
2021-09-13 06:33:00,,0828.4,5.01,0.00,29.7,29.0,00.0,38.9,31.4,22.8,0000.0,0009.29,0004.35,0003.63
2021-09-13 06:34:00,,0828.4,4.98,0.00,29.7,29.0,00.0,38.9,31.4,23.1,0000.0,0008.82,0004.32,0003.61
2021-09-13 06:35:00,,0828.4,5.01,0.00,29.7,29.0,00.0,38.9,31.4,23.1,0000.0,0008.85,0004.33,0003.61
2021-09-13 06:36:00,,0828.5,5.00,0.00,29.7,29.0,00.0,38.9,31.4,23.7,0000.0,0008.85,0004.34,0003.61
2021-09-13 06:37:00,,0828.5,5.01,0.00,29.7,29.0,00.0,38.9,31.4,23.6,0000.0,0008.82,0004.35,0003.61
2021-09-13 06:38:00,,0828.5,4.98,0.00,29.7,29.0,00.0,38.9,31.4,23.5,0000.0,0008.72,0004.31,0003.61
2021-09-13 06:39:00,,0828.4,5.02,0.00,29.7,29.0,00.0,38.9,31.4,23.2,0000.0,0008.68,0004.28,0003.61
2021-09-13 06:40:00,,0828.4,5.00,0.00,29.7,29.0,00.0,38.9,31.4,23.1,0000.0,0008.61,0004.24,0003.61
2021-09-13 06:41:00,,0828.4,4.99,0.00,29.7,29.0,00.0,38.9,31.4,22.9,0000.0,0008.48,0004.20,0003.61
2021-09-13 06:42:00,,0828.4,5.00,0.00,29.7,29.0,00.0,38.9,31.4,22.8,0000.0,0008.92,0004.20,0003.61
2021-09-13 06:43:00,,0828.3,5.00,0.00,29.7,29.0,00.0,38.9,31.4,22.5,0000.0,0008.59,0004.22,0003.60
2021-09-13 06:44:00,,0828.3,5.01,0.00,29.7,29.0,00.0,38.9,31.4,22.4,0000.0,0008.23,0004.22,0003.59
2021-09-13 06:45:00,,0828.3,5.00,0.00,29.8,29.0,00.0,38.9,31.4,22.0,0000.0,0008.30,0004.22,0003.59
2021-09-13 06:46:00,,0828.3,5.00,0.00,29.8,29.0,00.0,38.9,31.4,21.9,0000.0,0008.31,0004.21,0003.58
2021-09-13 06:47:00,,0828.3,4.98,0.00,29.8,29.0,00.0,38.9,31.5,22.4,0000.0,0008.30,0004.19,0003.56
2021-09-13 06:48:00,,0828.3,5.00,0.00,29.8,29.0,00.0,38.9,31.5,22.1,0000.0,0008.28,0004.14,0003.54
2021-09-13 06:49:00,,0828.3,5.01,0.00,29.8,29.0,00.0,38.9,31.5,22.4,0000.0,0008.33,0004.14,0003.53
2021-09-13 06:50:00,,0828.3,5.00,0.00,29.8,29.0,00.0,38.9,31.5,22.0,0000.0,0008.39,0004.15,0003.51
2021-09-13 06:51:00,,0828.3,5.00,0.00,29.8,28.0,00.0,38.9,31.2,21.7,0000.0,0008.47,0004.14,0003.49
2021-09-13 06:52:00,,0828.3,5.00,0.00,29.6,26.2,00.0,38.9,30.8,21.9,0000.0,0008.43,0004.13,0003.48
2021-09-13 06:53:00,,0828.3,5.00,0.00,29.5,26.0,00.0,38.8,30.7,22.3,0000.0,0008.04,0004.10,0003.46
2021-09-13 06:54:00,,0828.3,5.00,0.00,29.4,26.4,00.0,38.8,30.8,22.3,0000.0,0007.84,0004.04,0003.44
2021-09-13 06:55:00,,0828.3,4.99,0.00,29.4,26.8,00.0,38.7,30.9,21.7,0000.0,0007.79,0004.03,0003.43
2021-09-13 06:56:00,,0828.3,5.01,0.00,29.4,27.2,00.0,38.7,30.9,22.6,0000.0,0007.56,0004.01,0003.41
2021-09-13 06:57:00,,0828.3,4.99,0.00,29.4,27.5,00.0,38.6,31.0,22.0,0000.0,0007.52,0004.00,0003.40
2021-09-13 06:58:00,,0828.3,5.00,0.00,29.4,27.8,00.0,38.6,31.0,21.4,0000.0,0007.60,0004.02,0003.38
2021-09-13 06:59:00,,0828.3,4.99,0.00,29.4,28.0,00.0,38.6,31.1,20.9,0000.0,0007.63,0004.04,0003.35
